Weather History for Madera, CA

Change the Weather History Date:

Friday, January 10, 2014

  Actual Average Record
Temperature  
Mean Temperature 47 °F 45 °F  
Max Temperature 60 °F 53 °F 64 °F (2012)
Min Temperature 34 °F 37 °F 30 °F (2009)
Degree Days  
Heating Degree Days 18    
Month to date heating degree days 168  
Since 1 July heating degree days 1239  
Cooling Degree Days 0    
Month to date cooling degree days 0  
Year to date cooling degree days 0  
Moisture  
Dew Point 37 °F    
Average Humidity 72    
Maximum Humidity 93    
Minimum Humidity 51    
Precipitation  
Precipitation 0.00 in 0.10 in 0.67 in (2001)
Month to date precipitation 0.00 1.05  
Year to date precipitation 0.00 1.05  
Since 1 July precipitation 0.97 5.07  
Snow  
Snow 0.00 in - - ()
Month to date snowfall 0.0  
Since 1 July snowfall 0.0  
Snow Depth 0.00 in    
Sea Level Pressure  
Sea Level Pressure 30.25 in    
Wind  
Wind Speed 1 mph (NE)    
Max Wind Speed 7 mph    
Max Gust Speed 9 mph    
Visibility 3 miles    
Events      
T = Trace of Precipitation, MM = Missing Value Source: NWS Daily Summary

Daily Weather History Graph

Daily Weather History Graph

Search for Another Location

Airport:

Trip Planner

Search our weather history database for the weather conditions in past years. The results will help you decide how hot, cold, wet, or windy it might be!

Date:

Astronomy

Jan. 10, 2014 Rise Set
Actual Time 7:13 AM PST 5:02 PM PST
Civil Twilight 6:45 AM PST 5:31 PM PST
Nautical Twilight 6:13 AM PST 6:03 PM PST
Astronomical Twilight 5:41 AM PST 6:34 PM PST
Moon 1:07 PM PST (1/10) 2:28 AM PST (1/10)
Length of Visible Light 10h 45m
Length of Day
9h 48m
Waxing Gibbous, 76% of the Moon is Illuminated
Jan 10
Waxing Gibbous
Jan 15
Full
Jan 23
Last Quarter
Jan 30
New
Feb 6
First Quarter

Hourly Weather History & Observations

Time (PST) Temp. Windchill Dew Point Humidity Pressure Visibility Wind Dir Wind Speed Gust Speed Precip Events Conditions
12:53 AM 41.0 °F 39.0 °F 39.0 °F 93% 30.23 in 4.0 mi East 3.5 mph - N/A   Clear
1:53 AM 39.9 °F 37.8 °F 37.9 °F 93% 30.24 in 4.0 mi ENE 3.5 mph - N/A   Clear
2:53 AM 37.0 °F - 35.1 °F 93% 30.24 in 2.0 mi Calm Calm - N/A   Clear
3:15 AM 36.0 °F 33.3 °F 33.1 °F 89% 30.23 in 3.0 mi NE 3.5 mph - N/A   Clear
3:34 AM 35.1 °F - 33.1 °F 92% 30.24 in 2.5 mi Calm Calm - N/A   Clear
3:50 AM 35.6 °F - 33.8 °F 93% 30.23 in 1.8 mi Calm Calm - N/A   Clear
3:53 AM 36.0 °F - 34.0 °F 93% 30.23 in 2.0 mi Calm Calm - N/A   Clear
4:02 AM 37.0 °F - 35.1 °F 93% 30.23 in 3.0 mi Calm Calm - N/A   Clear
4:15 AM 36.0 °F 33.3 °F 34.0 °F 93% 30.23 in 2.5 mi ENE 3.5 mph - N/A   Clear
4:40 AM 37.0 °F 33.3 °F 34.0 °F 89% 30.23 in 1.8 mi ENE 4.6 mph - N/A   Clear
4:53 AM 37.0 °F - 34.0 °F 89% 30.23 in 1.5 mi Calm Calm - N/A   Clear
5:53 AM 37.0 °F 33.3 °F 35.1 °F 93% 30.24 in 1.8 mi NNE 4.6 mph - N/A   Clear
6:26 AM 36.0 °F 33.3 °F 35.1 °F 97% 30.24 in 2.0 mi NNE 3.5 mph - N/A   Clear
6:53 AM 37.0 °F 34.5 °F 35.1 °F 93% 30.27 in 3.0 mi NNE 3.5 mph - N/A   Clear
7:07 AM 35.1 °F - 34.0 °F 96% 30.26 in 2.0 mi Calm Calm - N/A   Clear
7:15 AM 36.0 °F - 34.0 °F 93% 30.27 in 1.5 mi Calm Calm - N/A   Clear
7:53 AM 35.1 °F - 33.1 °F 92% 30.28 in 2.5 mi Calm Calm - N/A   Clear
8:06 AM 37.0 °F - 34.0 °F 89% 30.28 in 3.0 mi Calm Calm - N/A   Clear
8:22 AM 39.0 °F - 36.0 °F 89% 30.29 in 2.5 mi Calm Calm - N/A   Clear
8:42 AM 43.0 °F - 39.0 °F 86% 30.29 in 3.0 mi Calm Calm - N/A   Clear
8:53 AM 44.1 °F - 39.9 °F 85% 30.30 in 3.0 mi Calm Calm - N/A   Clear
9:53 AM 50.0 °F - 42.1 °F 74% 30.31 in 4.0 mi Calm Calm - N/A   Haze
10:53 AM 53.1 °F - 42.1 °F 66% 30.30 in 4.0 mi Calm Calm - N/A   Haze
11:53 AM 57.0 °F - 42.1 °F 57% 30.27 in 4.0 mi Variable 4.6 mph - N/A   Haze
12:53 PM 57.0 °F - 42.1 °F 57% 30.24 in 5.0 mi Calm Calm - N/A   Haze
1:53 PM 57.9 °F - 42.1 °F 56% 30.22 in 5.0 mi Calm Calm - N/A   Haze
2:53 PM 60.1 °F - 42.1 °F 51% 30.21 in 5.0 mi Calm Calm - N/A   Haze
3:53 PM 59.0 °F - 43.0 °F 55% 30.20 in 5.0 mi Calm Calm - N/A   Haze
4:53 PM 57.0 °F - 43.0 °F 59% 30.20 in 5.0 mi Calm Calm - N/A   Haze
5:53 PM 52.0 °F - 42.1 °F 69% 30.21 in 5.0 mi Calm Calm - N/A   Haze
6:53 PM 48.0 °F - 41.0 °F 77% 30.22 in 5.0 mi Calm Calm - N/A   Haze
7:53 PM 48.0 °F - 39.9 °F 74% 30.22 in 5.0 mi ENE 3.5 mph - N/A   Haze
8:53 PM 43.0 °F - 37.9 °F 82% 30.24 in 4.0 mi Calm Calm - N/A   Haze
9:53 PM 42.1 °F - 37.9 °F 85% 30.24 in 4.0 mi Calm Calm - N/A   Clear
10:53 PM 42.1 °F 40.2 °F 37.0 °F 82% 30.24 in 4.0 mi East 3.5 mph - N/A   Haze
11:53 PM 39.0 °F - 36.0 °F 89% 30.23 in 3.0 mi Calm Calm - N/A   Clear